RH
26 27 29 29 28 29 29 29 29 29 28 27 27 29 30 29 28 28 28 29 27 27 26 25 23 20 18 18 15 14 14 13 14 19 25 25 23 23 24 27 29 28 26 24 21 20 18 17 16 17 17 17 16 17 16 16 17 16 14 13 12 10 8 6 7 8 8 7 7 7 7 8 8 9 13 14 14 12 10 9 7 7 8 11 20 22 21 25
23 27 29 30 29 29 30 30 30 30 30 27 26 27 28 29 29 29 28 28 27 26 25 23 21 19 16 14 13 13 13 15 21 26 25 23 23 23 23 24 26 26 24 22 22 22 22 19 16 16 16 17 16 16 16 18 18 16 14 13 12 10 9 7 7 7 8 8 7 8 8 8 8 10 13 13 11 11 9 7 6 5 6 12 21 22 22 24
15 19 25 30 30 29 31 32 31 31 31 30 29 29 28 28 28 27 27 27 26 24 24 23 23 22 16 10 9 11 15 20 25 26 23 23 22 22 23 22 25 27 24 22 24 26 25 23 20 17 17 17 16 16 16 18 19 17 15 14 11 10 10 8 8 8 8 8 7 9 10 9 9 11 13 12 11 10 7 7 6 5 6 10 21 26 25 27
12 14 22 30 30 30 32 32 32 32 32 33 31 30 29 28 28 27 26 26 26 25 25 23 22 22 17 11 7 9 18 23 26 27 26 26 24 22 22 21 24 28 26 25 27 28 26 26 24 22 24 21 18 19 17 17 19 18 16 14 12 11 10 9 9 10 8 8 8 9 11 9 10 12 12 11 12 8 6 7 5 5 7 7 20 29 27 28
11 12 20 30 33 32 34 33 34 33 33 34 32 31 30 29 28 27 27 28 28 28 28 27 24 23 20 14 8 11 21 24 27 33 31 26 24 23 23 21 24 28 30 30 29 28 27 27 25 27 31 26 20 19 17 17 18 18 16 14 13 12 12 10 9 9 9 10 9 9 9 9 11 12 11 11 11 8 6 7 5 5 6 6 21 31 28 29
11 12 18 31 35 35 36 35 35 35 35 35 33 32 30 30 29 29 29 29 30 29 29 30 28 27 26 18 11 16 23 19 18 24 25 22 18 19 22 22 24 27 30 32 29 27 27 27 26 29 35 31 22 18 16 16 18 17 16 14 14 13 13 13 11 9 10 11 10 8 7 9 12 12 10 11 10 8 6 7 8 7 6 10 22 31 32 34
12 12 17 30 36 37 37 37 38 38 36 34 32 32 31 31 30 31 29 29 29 29 30 32 31 30 30 26 20 20 22 16 14 20 22 21 17 17 20 20 23 28 30 31 29 27 28 29 27 29 39 37 26 19 16 16 17 16 16 15 15 14 13 13 14 12 11 11 10 10 8 9 12 12 10 9 9 8 7 7 10 10 12 18 25 33 38 40
12 13 20 31 36 37 38 38 39 38 36 33 30 29 30 29 29 29 28 28 28 29 30 32 32 32 32 32 28 23 21 19 20 23 21 18 16 17 17 17 21 29 31 29 28 29 33 36 35 35 40 39 30 22 16 15 15 15 16 15 15 15 14 13 13 14 13 12 11 10 10 10 10 11 10 9 9 9 7 8 11 13 16 20 23 31 36 34
15 18 26 34 37 37 38 37 37 36 35 32 28 27 28 28 27 26 25 26 28 30 31 30 31 32 33 34 30 25 21 19 18 20 21 18 14 15 15 15 17 24 30 29 28 30 36 43 45 42 41 38 32 24 18 16 14 14 15 15 16 16 16 15 13 13 14 13 12 11 11 11 10 11 11 9 10 9 8 8 10 12 15 17 17 22 27 26
24 26 31 35 36 37 38 38 36 35 33 31 28 26 25 24 22 20 20 22 24 27 29 31 30 31 35 35 31 27 21 18 16 18 25 22 14 13 14 14 14 17 23 28 29 30 37 45 47 44 42 38 33 26 20 17 13 15 17 16 16 17 17 17 15 13 13 14 14 14 13 12 11 11 11 9 10 10 8 7 9 11 12 14 14 14 20 23
31 33 35 35 35 35 36 35 33 31 29 28 26 23 20 18 16 16 17 18 19 21 24 27 31 35 38 37 34 30 22 19 17 18 26 25 17 15 14 13 14 14 17 25 29 30 37 45 46 43 41 37 33 27 22 19 16 17 20 20 17 17 18 18 17 15 13 14 16 16 15 13 12 10 10 9 9 10 9 8 8 11 11 11 12 13 19 23
34 35 35 35 35 33 32 31 30 30 28 26 24 21 19 18 17 18 17 18 20 21 22 24 30 37 39 39 37 30 24 22 21 19 22 23 19 17 15 14 14 13 13 19 27 31 35 43 46 44 42 38 32 28 24 21 20 19 19 22 20 19 19 17 17 18 16 14 15 17 15 13 11 10 9 9 9 10 9 8 8 10 11 10 9 12 21 27
34 34 34 34 35 33 31 29 29 30 30 28 25 22 21 21 21 20 20 22 23 24 26 25 30 38 43 42 36 30 29 27 25 24 20 19 18 16 15 14 13 13 12 15 23 30 35 42 46 43 43 44 36 28 26 24 23 22 20 20 22 21 20 17 17 18 18 17 17 17 14 11 10 10 10 9 9 10 9 8 8 8 8 9 8 10 21 28
34 34 33 33 33 32 30 28 29 30 29 29 26 24 23 23 23 24 24 26 28 30 31 28 32 42 45 41 36 34 35 31 29 29 25 22 19 17 18 16 13 13 12 12 18 28 34 40 45 43 42 44 40 32 31 31 28 26 23 21 20 22 21 19 17 18 19 19 19 18 14 11 11 10 10 9 9 9 9 8 8 8 7 8 8 11 23 29
35 34 33 33 33 30 28 28 29 30 30 29 28 26 24 24 25 26 28 32 34 35 34 33 38 47 47 44 41 40 38 36 36 34 31 27 20 20 24 25 21 17 15 13 16 25 33 40 44 44 41 40 42 39 35 35 32 28 26 23 20 21 21 20 18 17 19 21 20 18 14 11 11 12 11 10 9 9 9 8 7 8 6 7 7 11 25 30
36 35 32 32 32 29 27 28 29 31 31 31 30 26 26 27 30 32 34 37 38 37 39 42 47 51 51 49 45 44 44 44 43 40 39 35 29 27 28 29 29 25 22 19 21 25 31 40 45 44 42 40 43 42 39 38 35 30 27 23 20 20 19 19 18 17 19 21 19 16 13 12 11 11 12 11 10 8 8 8 8 8 7 7 7 11 26 33
33 32 31 31 29 26 25 25 28 32 33 34 32 28 27 31 34 37 39 41 42 42 45 49 55 56 52 49 49 50 51 49 46 47 46 44 38 33 28 28 31 30 27 26 26 27 29 38 46 45 42 42 43 44 48 44 36 31 27 25 22 20 19 17 17 17 17 18 17 15 13 12 11 11 11 11 10 9 8 8 8 9 8 8 8 13 27 32
29 31 32 30 26 24 23 23 28 33 34 36 35 30 29 32 35 39 42 45 46 48 49 50 57 60 52 50 52 53 52 51 50 49 47 47 45 38 31 29 30 30 29 26 25 27 30 36 44 48 43 42 43 44 47 42 34 32 30 27 23 21 21 18 14 16 17 16 14 14 13 13 12 12 10 10 11 10 10 9 8 9 9 10 9 14 26 30
27 31 33 30 26 23 22 24 29 34 37 38 37 33 32 35 40 44 46 47 50 52 53 52 56 58 50 48 53 55 54 53 53 51 49 51 51 49 43 37 31 29 28 26 27 28 28 33 41 49 45 39 40 40 38 36 36 36 32 28 23 21 22 18 13 13 16 16 14 13 14 14 13 12 10 10 10 11 11 11 9 9 9 11 10 13 25 29
27 30 33 30 26 23 22 25 30 37 41 41 41 39 38 41 43 48 48 48 51 50 49 51 52 51 47 47 52 54 54 53 53 54 53 52 53 55 56 51 39 32 27 25 32 35 31 32 38 44 44 38 36 36 35 36 39 38 33 29 25 23 21 18 14 12 14 16 15 13 13 14 13 12 11 10 11 10 12 12 10 10 9 10 9 12 24 29
26 31 33 28 25 22 22 27 33 40 43 43 44 45 46 47 45 47 47 47 49 46 44 47 48 48 47 49 54 55 55 55 55 56 57 57 57 57 60 61 50 37 28 23 31 41 39 34 33 37 41 40 37 33 34 38 40 38 34 31 28 25 21 18 16 12 12 15 16 15 14 13 13 13 11 10 11 11 12 12 11 10 9 9 9 10 21 29
27 31 31 27 24 22 23 30 36 42 45 44 46 49 52 52 49 49 50 47 46 45 45 46 47 51 53 55 58 58 58 59 58 60 63 63 62 61 60 62 57 47 36 27 28 40 44 36 29 32 39 44 46 39 35 39 41 39 36 34 31 28 23 19 17 14 12 13 15 15 14 13 12 13 12 11 11 12 13 13 12 11 9 9 9 9 18 28
28 28 28 26 23 22 26 32 38 44 48 45 48 53 53 52 50 53 57 53 47 45 44 46 50 54 59 62 61 58 60 61 59 60 66 68 66 66 63 60 59 56 47 37 32 36 43 38 28 31 40 48 54 48 39 40 42 40 37 35 34 33 30 21 18 17 14 14 15 15 15 14 13 13 13 12 11 12 14 13 13 13 11 10 10 9 17 29
26 24 26 26 23 24 29 33 41 47 47 47 54 58 55 53 54 58 60 54 49 49 47 48 53 58 62 64 60 58 62 63 61 61 64 69 69 67 66 62 60 60 52 42 35 32 35 38 33 34 44 52 54 52 47 42 42 39 35 35 34 35 35 25 20 20 16 18 18 15 15 14 13 13 13 13 12 11 13 14 13 13 13 11 11 11 16 30
23 23 26 27 25 27 30 36 45 49 48 51 57 57 56 58 60 62 62 56 55 56 53 52 55 60 63 62 61 61 63 65 65 63 62 66 68 66 65 63 61 61 54 41 36 33 29 33 38 38 42 52 54 53 50 44 42 39 35 34 33 34 37 29 25 25 22 23 21 15 16 15 13 13 13 14 13 11 11 13 14 14 14 12 13 12 17 31
22 24 28 29 27 28 33 40 47 49 50 56 56 55 61 63 64 66 65 64 65 61 58 59 61 66 66 63 63 64 67 70 67 63 62 64 67 65 61 59 57 57 55 43 34 33 29 30 43 44 39 47 55 54 51 46 43 41 35 33 33 34 37 32 26 28 28 27 25 18 14 15 14 13 12 13 14 12 10 12 13 13 14 14 14 14 19 32
22 25 29 30 27 30 37 42 46 49 52 55 55 58 64 66 68 69 70 75 73 63 62 66 68 69 66 63 65 71 77 74 67 63 61 63 69 67 58 55 57 54 53 51 41 32 30 32 44 49 42 44 53 54 52 48 44 41 36 33 33 34 38 34 28 29 30 29 29 21 14 14 14 13 12 11 14 13 11 11 12 13 13 13 15 16 20 32
22 26 30 30 27 32 38 42 48 54 54 53 57 61 65 68 71 72 77 83 71 62 67 69 69 69 66 65 65 70 77 74 71 69 62 63 69 67 57 54 58 54 49 52 49 37 31 33 41 47 46 45 48 51 52 49 44 39 37 35 32 33 37 36 31 28 28 31 31 23 14 13 14 14 13 11 13 14 12 11 11 12 14 13 14 16 22 33
22 27 30 29 29 35 40 42 49 56 57 55 58 63 66 70 74 76 83 84 69 65 72 71 70 70 67 68 66 69 77 80 79 72 62 62 66 66 62 58 59 58 50 47 49 49 40 33 40 48 50 48 45 50 54 52 48 41 38 37 32 32 36 37 35 29 27 32 30 21 15 13 13 15 14 12 12 13 13 12 11 11 12 13 14 17 23 31
23 28 31 30 32 38 41 43 48 53 56 57 60 65 68 73 78 82 88 85 74 72 74 71 73 73 70 72 74 76 81 84 79 68 63 64 63 63 64 62 60 59 56 48 47 55 50 39 42 49 53 52 47 50 55 54 52 46 42 41 37 35 36 37 36 31 30 33 27 20 17 14 12 13 13 13 12 12 13 13 12 11 12 13 14 16 22 27
24 29 33 34 34 39 42 43 47 52 56 58 61 66 71 77 82 86 85 78 75 77 75 72 72 73 74 75 79 80 78 83 78 66 67 71 66 65 65 64 64 61 59 56 50 53 54 49 49 49 51 56 52 51 56 56 53 50 45 43 41 39 38 40 40 36 35 32 24 22 23 19 14 11 11 14 13 13 13 13 13 11 11 13 13 14 18 23
26 33 38 39 38 40 44 46 49 55 58 60 64 68 73 82 85 86 83 76 78 81 77 74 71 71 74 74 76 75 72 79 78 63 65 72 67 67 68 61 60 61 59 56 51 50 54 50 48 51 52 55 57 55 55 56 54 52 47 44 45 45 45 46 42 35 33 31 26 25 26 23 16 12 11 13 14 14 13 13 13 12 12 13 13 15 17 19
29 37 42 42 42 43 45 48 53 57 60 62 66 68 75 85 84 81 83 82 81 81 77 75 71 69 75 75 71 69 66 72 75 63 60 65 63 65 68 58 53 58 57 54 49 47 55 53 46 52 55 53 59 60 58 58 56 53 49 46 48 48 49 46 38 33 34 33 28 24 26 25 20 15 11 11 15 16 14 13 14 13 13 12 13 16 16 17
32 41 44 44 45 45 46 51 55 58 60 63 66 70 78 85 82 79 84 83 79 78 77 75 71 70 77 78 75 72 66 66 70 65 61 65 66 66 67 58 52 57 57 57 54 49 56 59 46 46 52 54 59 62 61 58 55 53 48 46 48 46 45 40 33 35 38 34 29 26 25 26 25 20 12 12 19 20 15 14 14 14 14 13 14 15 15 16
35 41 44 45 45 46 49 53 56 58 61 62 66 73 79 83 83 85 88 83 78 77 76 72 70 72 73 74 79 77 66 62 64 63 63 66 66 63 60 52 50 57 59 59 58 52 54 57 41 35 45 54 59 62 62 59 55 54 49 45 47 43 39 38 34 34 38 36 32 29 24 24 27 25 16 13 21 26 23 18 15 16 15 14 14 14 15 17
38 43 44 45 45 46 49 53 57 60 61 62 68 74 76 80 86 89 89 87 82 77 76 73 70 72 70 69 79 80 68 62 62 65 68 63 57 58 56 48 47 54 59 60 59 50 49 54 46 36 41 51 59 62 60 59 55 52 50 46 44 42 41 42 40 36 39 39 32 26 23 25 26 25 19 16 18 26 28 21 16 16 15 15 16 15 16 17
40 44 46 46 45 45 49 55 60 62 62 66 72 73 72 78 85 86 88 90 85 78 78 79 73 72 75 76 82 83 75 68 62 64 67 59 55 57 52 45 45 52 58 62 63 53 48 56 54 43 41 44 53 61 59 57 54 48 49 47 43 44 43 42 43 42 42 40 31 24 25 29 27 22 21 19 19 23 25 20 16 16 16 16 16 16 15 15
39 43 46 46 46 47 50 57 61 65 67 69 72 72 71 76 81 83 88 90 87 81 81 84 79 74 79 84 84 83 80 74 65 62 65 62 60 56 46 43 47 54 59 60 66 64 57 60 57 46 43 41 47 60 60 56 54 48 47 46 43 46 46 43 45 45 42 39 33 29 27 30 29 23 22 22 21 24 23 19 16 16 16 17 16 15 14 14
38 44 50 48 47 50 54 59 63 68 71 71 73 72 69 73 79 83 88 90 88 85 81 83 82 79 82 83 83 83 81 77 71 67 69 68 62 50 41 43 49 55 60 61 68 72 64 65 62 48 45 44 44 57 61 56 54 51 48 46 43 45 46 45 45 43 40 39 35 33 32 30 28 26 26 24 23 24 21 18 17 16 17 17 16 15 13 13
39 47 55 52 48 49 55 60 64 70 74 73 73 71 67 72 80 85 89 90 90 88 82 81 84 86 86 82 83 84 82 83 80 76 74 66 56 47 39 42 52 59 61 62 70 74 67 70 68 50 45 50 46 49 56 55 53 53 52 48 44 43 45 45 43 40 40 39 35 35 37 32 28 28 29 26 25 24 19 16 17 17 18 17 16 15 13 14
41 49 56 54 48 49 56 61 63 67 72 70 68 68 67 73 82 85 88 89 90 89 83 81 86 90 90 87 84 83 84 88 83 78 77 68 57 52 43 40 52 62 62 64 71 74 70 71 73 59 50 53 47 38 44 52 52 52 52 48 44 43 44 46 45 40 39 38 35 37 42 37 29 28 29 28 28 25 19 16 17 17 18 17 16 15 14 16
40 49 56 52 45 46 55 61 59 62 67 65 63 65 67 73 80 84 87 88 89 89 83 81 86 91 91 90 86 84 86 88 85 80 77 68 58 54 45 38 46 58 64 68 70 71 70 71 74 68 56 52 47 37 39 50 54 51 50 48 46 45 43 45 46 42 39 37 34 35 40 38 30 26 28 31 31 26 20 17 16 16 18 17 17 16 16 17
39 45 49 45 38 42 55 61 57 59 64 63 62 65 69 73 78 82 87 89 89 88 83 81 86 90 91 90 88 89 89 87 87 81 74 70 60 50 44 40 44 57 66 70 72 70 71 72 73 72 62 51 48 43 42 48 51 51 51 48 48 47 42 42 44 41 38 36 34 34 38 36 29 25 27 30 31 28 24 20 16 16 17 18 19 18 17 18
41 47 51 44 36 42 56 60 57 58 63 63 61 64 68 73 78 84 89 91 90 90 86 82 84 88 90 92 93 94 94 91 88 81 75 75 64 50 47 44 48 62 68 68 71 71 73 77 77 77 69 56 52 50 46 46 47 49 52 48 47 47 42 41 43 41 39 36 33 33 36 33 29 27 29 31 32 30 23 19 17 17 18 19 19 18 19 19
41 49 51 42 36 44 53 55 56 59 61 62 61 62 68 75 81 87 89 90 91 91 87 81 79 84 90 95 95 92 91 92 92 85 78 75 64 52 50 46 50 65 67 62 67 71 77 84 81 76 69 59 56 52 44 42 44 47 50 48 45 45 43 44 45 43 41 37 32 31 34 35 32 32 35 36 37 35 26 20 19 19 20 22 22 20 20 22
39 45 42 33 35 43 47 49 55 57 56 60 62 62 68 76 82 86 88 90 92 89 83 76 76 86 93 95 95 91 87 87 89 86 84 82 71 55 49 46 49 60 63 63 67 70 77 84 79 73 65 55 49 44 36 36 40 44 47 46 44 42 42 44 47 45 40 37 34 31 32 34 32 33 36 37 38 39 34 32 32 29 27 26 26 26 26 27
37 41 37 34 37 37 36 42 50 52 54 62 65 62 68 77 81 84 87 90 91 86 79 75 80 91 96 96 96 92 85 82 83 82 80 80 73 59 53 51 48 53 61 64 65 67 75 81 76 72 67 57 49 44 38 36 38 41 45 44 41 40 41 45 48 45 39 39 42 41 40 41 40 42 42 37 38 40 39 42 46 43 37 31 30 33 35 35
36 37 36 37 36 31 31 38 46 52 57 63 65 62 69 80 84 87 90 91 90 86 80 80 87 92 95 98 98 93 87 83 83 80 75 75 73 63 55 52 48 52 59 59 59 65 73 77 73 69 68 61 53 49 44 40 38 41 45 45 42 42 43 45 48 46 44 51 56 52 53 56 56 59 55 45 44 47 46 49 50 47 44 39 36 38 39 39
40 39 37 37 35 31 33 37 45 54 58 61 63 61 68 80 85 88 93 94 91 86 83 87 91 91 94 96 95 96 94 88 84 80 74 77 80 70 61 59 57 58 59 58 62 69 73 76 74 71 67 60 56 54 49 43 41 42 45 45 43 44 44 45 49 50 50 58 60 52 54 59 60 64 63 54 49 51 56 57 50 45 47 43 41 42 40 39
44 43 40 38 36 32 31 35 44 52 54 57 61 61 68 80 85 87 93 95 92 86 84 89 90 85 86 86 86 91 93 87 84 80 72 75 81 76 69 66 64 64 63 62 70 76 78 80 79 74 67 61 58 58 52 46 44 45 46 45 42 43 45 46 50 51 50 54 56 51 54 59 60 62 63 56 50 52 62 63 50 44 46 43 40 39 36 34
47 47 44 40 36 30 27 31 41 50 54 57 60 62 68 78 84 88 90 89 88 86 85 88 87 79 77 79 80 82 81 80 81 78 71 72 74 71 66 61 62 67 66 68 78 81 79 80 77 73 71 69 62 57 53 49 47 48 49 47 42 41 45 49 52 54 56 56 54 53 58 62 62 60 59 56 51 51 62 66 56 46 42 40 40 36 31 30
50 50 48 41 34 29 25 26 37 52 58 58 61 65 68 75 82 87 88 85 83 83 83 84 82 77 77 80 80 77 75 76 77 73 69 68 66 65 62 58 61 65 64 70 81 81 79 83 83 78 75 71 63 56 53 52 52 53 49 47 45 41 42 51 54 55 59 60 58 59 62 63 64 63 63 62 55 52 61 70 68 59 48 44 43 39 37 37